Location: Berg
(47.2344°N, 9.5296°E)
Time: 21:59:14
(UTC+00:00)

Cosmos 2026 Rocket - Pass Details

Date: 24 January 2021
Orbit: 940 x 1000 km, 82.9° (Epoch: 03 March)

Event Time Altitude Azimuth Distance (km) Brightness Sun altitude
Rises 17:36:37 0° 169° (S) 3,607 7.0 -14.3°
Reaches altitude 10° 17:39:09 10° 164° (SSE) 2,672 6.3 -14.7°
Maximum altitude 17:45:01 51° 91° (E) 1,201 4.1 -15.7°
Drops below altitude 10° 17:51:00 10° 18° (NNE) 2,729 6.1 -16.7°
Sets 17:53:36 0° 13° (NNE) 3,690 6.8 -17.1°
